Location: Estes Park
(40.3770°N, 105.5210°W)
Time: 11:08:25
(UTC-06:00)

OTV 5 (USA 277) - Pass Details

Date: 11 October 2017
Orbit: 404 x 417 km, 43.0° (Epoch: 07 September)

Event Time Altitude Azimuth Distance (km) Brightness Sun altitude
Rises 20:00:09 0° 254° (WSW) 2,343 ? -18.4°
Reaches altitude 10° 20:02:15 10° 255° (WSW) 1,482 ? -18.8°
Maximum altitude 20:05:36 84° 343° (NNW) 420 ? -19.4°
Enters shadow 20:05:49 77° 48° (NE) 428 ? -19.5°
